CZ-6A DEB

Satellite information

Favourite Embed

Satellite Type and Status

DEBRISIN ORBIT

Key statistics

Satellite CZ-6A DEB at a glance.

Uptime

1074

Days in orbit

Revolutions

≈ 14.2

Per day

Orbit

SSO

Sun Synchronous Orbit

Inclination

98.8

Latest

Satellite identification and parameters

Extended collection of information and parameters for CZ-6A DEB.

Object identification

Identified? True

Debris? True

Object name: CZ-6A DEB

International designator: 2022-151AHW

Object number (NORAD): 57579

Object ID (CCSDS): 57579

Country: PEOPLES REPUBLIC OF CHINA (PRC)

Current information (Y/N): Y

RCS size: SMALL

Orbital parameters

Period: 101.127 minutes

Inclination: 98.7666 deg

SMA: 7190.132 km

Apoapsis: 828.831 km

Periapsis: 795.163 km

RAAN: 301.4751 deg

Eccentricy: 0.00234129

Argument of periapsis: 320.3837 deg

Mean anomaly: 39.563 deg

Mean motion: 14.23958962 rev/day

Mean motion (dot): 0.0000257 rev/day2

B* drag term: 0.0011361149 1/REarth

Two-line elements (TLE)

Creation date: Oct. 16, 2025, 2:37 a.m.

Reference frame: TEME

Reference center: EARTH

Epoch: Oct. 15, 2025, 7:08 p.m. UTC

TLE line 0: 0 CZ-6A DEB

TLE line 1: 1 57579U 22151AHW 25288.79775081 .00002570 00000-0 11361-2 0 9991

TLE line 2: 2 57579 98.7666 301.4751 0023413 320.3837 39.5630 14.23958962128676

Live tracking on map

Real-time ground track for satellite CZ-6A DEB.

In-orbit conjunctions

A list of the most updated potential collisions computed for object CZ-6A DEB.

Target Orbit TCA Probability of collision Miss distance Type
CZ-6A DEB LEO 2025-07-24 20:29:38 0.0001706431 484.0 (m) DEBRIS
SL-3 DEB LEO 2024-09-19 14:07:10 0.0002693152 147.0 (m) DEBRIS
FENGYUN 1C DEB SSO 2024-06-13 13:13:44 0.0002713806 128.0 (m) DEBRIS

Associated space launch

Chinese satellite reported for atmospheric/ocean/environmental/spatial parameter research purposes, details TBD.

CZ-6A DEB was lifted into orbit during the mission ‘Long March 6A | Yunhai 3’, on board a Long March 6A space rocket.

The launch took place on Nov. 11, 2022, 10:52 p.m. from Launch Complex 9A.

For more information about the launch, click the button.

Launch to space Long March 6A | Yunhai 3
Long March 6A | Yunhai 3

Agency: N/A

Status: Launch Successful

Launch date: Nov. 11, 2022, 10:52 p.m. UTC

Rocket: Long March 6A

Launch pad: Launch Complex 9A

Location: Taiyuan Satellite Launch Center, People's Republic of China

...

Latest news about this satellite

There are no fresh news available about this satellite. Check back as we update our databases every day.


Newsletter sign-up

Weekly statistics, charts and insights to help you stay on top of the space industry.